[[{"header":{"parameterUnit":"m.s-1","parameterCategory":2,"la1":30.2991,"la2":30.254,"lo1":-89.0895,"lo2":-89.0444,"dy":0.0017,"dx":0.0017,"nx":28,"ny":28,"refTime":"2024-05-01T09:00:00:Z","depth":"0","parameterNumber":2,"parameterNumberName":"U-component_of_CURRENTS"},"data":[0,0,0,0,0,0,0,0,0,0,0,0,0,0,0,0,0,0,0,0,0,0,0,0,0,0,0,0,0,0,0,0,0,0,0,0,0,0,0,0,0,0,0,0,0,0,0,0,0,0,0,0,0,0,0,0,0,0,0.498,0.4981,0,0.4935,0.4933,0.4932,0.4874,0.4874,0.4874,0.4874,0.4842,0.4841,0.484,0,0,0,0,0,0,0,0,0,0,0,0,0,0.4946,0.4947,0.498,0.4981,0.4981,0.4935,0.4933,0.4932,0.4874,0.4874,0.4874,0.4874,0.4842,0.4841,0.484,0,0,0,0,0,0,0,0,0,0,0,0,0,0.4928,0.4947,0.498,0.4954,0.4951,0.4935,0.4933,0.4931,0.4875,0.4874,0.4874,0.4874,0.4843,0.4841,0.484,0.4835,0,0,0.4837,0.4836,0,0,0,0,0,0,0,0,0.4929,0.4928,0.4957,0.4956,0.4953,0.4918,0.491,0.4903,0.4875,0.4894,0.4874,0.4874,0.4875,0.4871,0.4849,0.4833,0.4832,0.4836,0.4836,0.4835,0.4835,0,0,0,0,0,0,0,0.4931,0.493,0.4953,0.4958,0.4955,0.492,0.4917,0.4907,0.4878,0.4892,0.489,0.49,0.4873,0.485,0.4848,0.4831,0.4837,0.4835,0.4835,0.4834,0.4914,0.4917,0,0,0,0,0,0,0.4959,0.4931,0.4954,0.4952,0.4951,0.4922,0.4918,0.4922,0.4878,0.4874,0.49,0.4898,0.4852,0.485,0.4847,0.4922,0.4835,0.4834,0.4833,0.4911,0.4914,0.4918,0,0,0,0,0,0,0.4959,0.4961,0.4956,0.4948,0.4946,0.4924,0.4928,0.4921,0.4921,0.4886,0.488,0.4911,0.4852,0.4849,0.4863,0.4917,0.4834,0.4833,0.4908,0.4912,0.4916,0.5018,0,0,0,0,0,0,0.4958,0.4961,0.4976,0.495,0.4948,0.4985,0.4929,0.4921,0.493,0.4927,0.4893,0.4888,0.4852,0.4865,0.4862,0.4914,0.4832,0.4904,0.491,0.4915,0.5011,0.5025,0.5037,0,0,0,0,0,0.4956,0.4988,0.4977,0.4981,0.4969,0.4988,0.4984,0.496,0.4932,0.4952,0.492,0.489,0.4898,0.4866,0.4861,0.4914,0.4902,0.4908,0.4914,0.5005,0.5022,0.5037,0,0,0,0,0,0,0.4964,0.4985,0.4972,0.5003,0.5013,0.4983,0.5005,0.4979,0.4964,0.4961,0.491,0.4904,0.4945,0.4918,0.4885,0.4958,0.4902,0.4908,0.4973,0.4988,0.5001,0.5016,0.4831,0,0,0,0,0,0.4979,0.5021,0.5019,0.5047,0.506,0.5033,0.5037,0.5022,0.5007,0.5,0.4971,0.4956,0.4965,0.4966,0.4966,0.4992,0.4978,0.5031,0.5045,0.5056,0.5069,0.511,0.5127,0.4938,0.4938,0.4938,0,0,0.4983,0.501,0.5024,0.5055,0.5056,0.5055,0.5034,0.5061,0.5057,0.5001,0.4997,0.5003,0.4985,0.502,0.5037,0.5003,0.5099,0.5064,0.5073,0.508,0.5118,0.5136,0.5152,0.4943,0.4942,0.4941,0,0,0.5001,0.5046,0.5067,0.5085,0.5115,0.5107,0.5124,0.5112,0.5117,0.5121,0.5093,0.5136,0.5113,0.5128,0.5128,0.5218,0.5173,0.5223,0.5292,0.5332,0.5348,0.5361,0.5349,0.5361,0.5223,0.5223,0.5223,0,0.4997,0.5021,0.5077,0.5091,0.5102,0.5131,0.5124,0.5143,0.5132,0.5152,0.5141,0.517,0.5169,0.5222,0.5262,0.5249,0.524,0.5227,0.5348,0.5362,0.5374,0.5358,0.5369,0.5229,0.5228,0.5228,0.5227,0,0.4984,0.5026,0.5055,0.5077,0.5101,0.5128,0.5154,0.5187,0.5201,0.521,0.5286,0.53,0.5314,0.5346,0.5328,0.5426,0.538,0.5363,0.5303,0.5399,0.5376,0.5386,0.5237,0.5235,0.5233,0.5232,0,0,0.4867,0.5018,0.5005,0.504,0.5099,0.5107,0.5159,0.5205,0.5233,0.5289,0.533,0.5409,0.5441,0.5447,0.5459,0.5518,0.5604,0.5485,0.5485,0.5464,0.5656,0.5461,0.5452,0.5604,0.5607,0.5609,0.5598,0,0.4817,0.4869,0.494,0.4967,0.4998,0.5075,0.511,0.5169,0.5235,0.5296,0.5397,0.5442,0.5471,0.5491,0.5567,0.5591,0.5638,0.5606,0.5575,0.5574,0.5382,0.5461,0.5298,0.526,0.5607,0.5609,0.561,0,0.4711,0.4784,0.4817,0.4949,0.4959,0.4971,0.5049,0.5095,0.5227,0.5285,0.5394,0.5456,0.5573,0.5577,0.5688,0.5661,0.5676,0.5699,0.5698,0.5489,0.5398,0.5227,0.5265,0.5209,0.5625,0.5624,0.5623,0,0.456,0.4673,0.4714,0.4745,0.4885,0.4911,0.4968,0.5081,0.5136,0.5285,0.5338,0.5481,0.5539,0.5621,0.5703,0.5688,0.5808,0.5771,0.561,0.5594,0.5434,0.5397,0.5405,0.5853,0.5853,0.5853,0.5853,0,0.4462,0.4481,0.4655,0.4669,0.4697,0.4821,0.486,0.4947,0.5084,0.5136,0.532,0.5382,0.5561,0.5655,0.5712,0.5689,0.5806,0.5631,0.5591,0.5459,0.5427,0.535,0.5317,0.5852,0.5852,0.5852,0.5853,0,0.4287,0.4406,0.4459,0.4605,0.4637,0.4644,0.4774,0.4807,0.4966,0.5041,0.5089,0.5314,0.541,0.5564,0.5685,0.565,0.552,0.5644,0.5452,0.5386,0.5079,0.5055,0.4761,0.4624,0.5403,0.5398,0.5394,0,0.4211,0.4233,0.4363,0.4375,0.4439,0.4494,0.4518,0.4698,0.4747,0.497,0.4984,0.5157,0.5208,0.5332,0.5365,0.5389,0.5345,0.5212,0.5146,0.5043,0.4992,0.481,0.4707,0.498,0.4973,0.4968,0.4963,0,0.4061,0.411,0.4159,0.4194,0.4218,0.4241,0.4313,0.4338,0.4533,0.4606,0.4702,0.4777,0.4938,0.4909,0.4983,0.4994,0.4955,0.508,0.5066,0.4726,0.4443,0.4298,0.4985,0.4912,0.4917,0.4921,0.4923,0.4925,0.3917,0.3908,0.3972,0.3957,0.3985,0.3941,0.3892,0.3991,0.4012,0.408,0.432,0.4366,0.4556,0.4615,0.4603,0.4534,0.4503,0.4446,0.4445,0.4285,0.4081,0.4606,0.4421,0.4424,0.4425,0.4427,0.4429,0,0.3697,0.3705,0.3721,0.3684,0.3598,0.3695,0.3695,0.3629,0.355,0.3718,0.3771,0.3946,0.3957,0.4131,0.4168,0.4013,0.3854,0.3934,0.3744,0.369,0.4268,0.4184,0.3829,0.3829,0.3829,0.3829,0.3829,0.3829,0.3575,0.3494,0.3488,0.3271,0.3247,0.3092,0.3037,0.3,0.3084,0.3104,0.3208,0.3381,0.3748,0.3894,0.3841,0.3746,0.3534,0.3296,0.331,0.387,0.3922,0.3971,0.389,0.3479,0.3479,0.2616,0.261,0.2605]},{"header":{"parameterUnit":"m.s-1","parameterCategory":2,"la1":30.2991,"la2":30.254,"lo1":-89.0895,"lo2":-89.0444,"dy":0.0017,"dx":0.0017,"nx":28,"ny":28,"refTime":"2024-05-01T09:00:00:Z","depth":"0","parameterNumber":3,"parameterNumberName":"V-component_of_CURRENTS"},"data":[0,0,0,0,0,0,0,0,0,0,0,0,0,0,0,0,0,0,0,0,0,0,0,0,0,0,0,0,0,0,0,0,0,0,0,0,0,0,0,0,0,0,0,0,0,0,0,0,0,0,0,0,0,0,0,0,0,0,-0.0185,-0.0185,0,-0.0172,-0.0171,-0.0171,-0.0166,-0.0166,-0.0166,-0.0167,-0.0226,-0.0227,-0.0228,0,0,0,0,0,0,0,0,0,0,0,0,0,-0.0199,-0.0198,-0.0185,-0.0185,-0.0185,-0.0172,-0.0171,-0.0171,-0.0166,-0.0166,-0.0167,-0.0167,-0.0225,-0.0227,-0.0228,0,0,0,0,0,0,0,0,0,0,0,0,0,-0.0187,-0.0198,-0.0185,-0.0183,-0.0183,-0.0172,-0.0171,-0.0171,-0.0166,-0.0166,-0.0167,-0.0167,-0.0225,-0.0227,-0.0228,-0.0232,0,0,-0.0234,-0.0235,0,0,0,0,0,0,0,0,-0.0188,-0.0186,-0.0183,-0.0183,-0.0183,-0.0173,-0.0198,-0.0196,-0.0166,-0.0169,-0.0167,-0.0167,-0.0216,-0.0219,-0.021,-0.0234,-0.0237,-0.0235,-0.0236,-0.0237,-0.0237,0,0,0,0,0,0,0,-0.0189,-0.0187,-0.0177,-0.0183,-0.0183,-0.0181,-0.0179,-0.0197,-0.019,-0.0169,-0.0169,-0.0172,-0.0216,-0.0208,-0.0212,-0.0238,-0.0234,-0.0236,-0.0237,-0.0238,-0.032,-0.0321,0,0,0,0,0,0,-0.0196,-0.0188,-0.0177,-0.0177,-0.019,-0.018,-0.0178,-0.0174,-0.0188,-0.0191,-0.0172,-0.0172,-0.0205,-0.021,-0.0214,-0.0243,-0.0237,-0.0238,-0.0239,-0.0319,-0.032,-0.0321,0,0,0,0,0,0,-0.0196,-0.0194,-0.0178,-0.0185,-0.0183,-0.018,-0.0174,-0.0173,-0.0166,-0.019,-0.0193,-0.0167,-0.0205,-0.0212,-0.0234,-0.0245,-0.0239,-0.0241,-0.0318,-0.0319,-0.0321,-0.0287,0,0,0,0,0,0,-0.0196,-0.0194,-0.0193,-0.0185,-0.0183,-0.0169,-0.0174,-0.0173,-0.0169,-0.0169,-0.0187,-0.0192,-0.0206,-0.0231,-0.0236,-0.0248,-0.0243,-0.0316,-0.0318,-0.032,-0.0287,-0.0287,-0.0287,0,0,0,0,0,-0.0197,-0.0187,-0.0193,-0.0192,-0.018,-0.0169,-0.0167,-0.0165,-0.0168,-0.0161,-0.018,-0.0192,-0.0248,-0.0233,-0.0239,-0.0251,-0.0315,-0.0318,-0.032,-0.0287,-0.0287,-0.0287,0,0,0,0,0,0,-0.019,-0.0185,-0.0192,-0.0181,-0.0178,-0.0169,-0.0164,-0.0163,-0.0168,-0.0174,-0.0194,-0.0201,-0.0227,-0.0247,-0.0231,-0.0284,-0.0288,-0.0291,-0.0261,-0.0261,-0.0262,-0.0241,-0.0244,0,0,0,0,0,-0.019,-0.0183,-0.0181,-0.0174,-0.0172,-0.0169,-0.0165,-0.0163,-0.0168,-0.0169,-0.0184,-0.0212,-0.024,-0.0256,-0.0278,-0.0301,-0.03,-0.0319,-0.0319,-0.0319,-0.0309,-0.033,-0.0331,-0.0329,-0.0329,-0.0329,0,0,-0.0184,-0.0184,-0.018,-0.0173,-0.0171,-0.0155,-0.0166,-0.0158,-0.0154,-0.0178,-0.018,-0.0207,-0.0246,-0.0271,-0.0286,-0.029,-0.0315,-0.0322,-0.0321,-0.0311,-0.0333,-0.0332,-0.0332,-0.033,-0.033,-0.033,0,0,-0.0164,-0.0172,-0.0156,-0.0153,-0.0152,-0.0148,-0.0146,-0.0139,-0.0147,-0.0153,-0.0179,-0.021,-0.0241,-0.0272,-0.0293,-0.0312,-0.0313,-0.0329,-0.0315,-0.0335,-0.0335,-0.0334,-0.0304,-0.0302,-0.0333,-0.0333,-0.0333,0,-0.0158,-0.0138,-0.0149,-0.0135,-0.0125,-0.0142,-0.0115,-0.013,-0.0133,-0.0136,-0.0154,-0.0202,-0.0241,-0.0275,-0.029,-0.031,-0.0304,-0.0305,-0.0332,-0.0332,-0.0333,-0.0302,-0.03,-0.0331,-0.0332,-0.0332,-0.0332,0,-0.0116,-0.011,-0.0101,-0.0087,-0.0079,-0.0063,-0.0078,-0.008,-0.0094,-0.0102,-0.0134,-0.0188,-0.0209,-0.0246,-0.0276,-0.0306,-0.0291,-0.0324,-0.0322,-0.033,-0.0298,-0.0296,-0.0329,-0.033,-0.033,-0.0331,0,0,-0.0057,-0.0069,-0.006,-0.0046,-0.005,-0.0025,-0.0037,-0.0031,-0.0017,-0.0064,-0.0048,-0.0139,-0.0159,-0.0187,-0.0237,-0.0278,-0.0279,-0.0302,-0.0304,-0.0254,-0.0282,-0.0262,-0.0257,-0.0315,-0.0315,-0.0316,-0.0247,0,-0.0012,0.0026,0.0008,0.0052,0.0077,0.005,0.0055,0.0049,0.0029,0.0036,-0.0048,-0.0052,-0.0142,-0.0142,-0.0204,-0.0252,-0.0277,-0.0292,-0.0297,-0.0296,-0.0265,-0.0257,-0.0228,-0.0165,-0.0245,-0.0244,-0.0244,0,0.0058,0.0072,0.0124,0.0135,0.0147,0.0171,0.0202,0.02,0.0172,0.0157,0.0114,0.0068,0.0005,-0.0068,-0.0161,-0.0162,-0.0217,-0.0267,-0.0266,-0.0258,-0.0274,-0.0179,-0.0158,-0.0334,-0.0241,-0.0241,-0.0241,0,0.0149,0.0163,0.0211,0.0218,0.0226,0.025,0.0262,0.0253,0.0281,0.0251,0.029,0.018,0.0187,0.0058,-0.0051,-0.0099,-0.0128,-0.0204,-0.0232,-0.0229,-0.0211,-0.0206,-0.0347,-0.0261,-0.0261,-0.0261,-0.0262,0,0.0221,0.0263,0.0262,0.0296,0.0376,0.0345,0.0426,0.0412,0.0425,0.0506,0.0374,0.0431,0.0218,0.0173,0.0019,-0.0071,-0.0066,-0.0211,-0.0217,-0.0196,-0.0192,-0.035,-0.046,-0.0259,-0.0259,-0.026,-0.026,0,0.0322,0.031,0.0378,0.0404,0.0425,0.0494,0.0559,0.0619,0.0604,0.0711,0.0721,0.0656,0.0599,0.0403,0.0246,0.0077,-0.0139,-0.0083,-0.0018,-0.002,-0.0258,-0.0366,-0.0489,-0.0568,-0.0121,-0.012,-0.0119,0,0.0374,0.0418,0.0489,0.0556,0.0579,0.0662,0.0734,0.0727,0.0803,0.0876,0.0957,0.0927,0.0946,0.0716,0.0411,0.0172,-0.0037,0.0024,-0.01,-0.0254,-0.0379,-0.047,-0.0535,-0.0044,-0.0043,-0.0042,-0.0041,0,0.0487,0.0516,0.0574,0.0711,0.0806,0.0905,0.1002,0.1088,0.112,0.1215,0.1344,0.1362,0.1153,0.0926,0.0573,0.0365,-0.0109,0.0037,-0.0155,-0.0355,-0.043,-0.0511,-0.0076,-0.0032,-0.0033,-0.0034,-0.0034,-0.0035,0.0588,0.066,0.0747,0.0877,0.0986,0.1131,0.1227,0.1348,0.1497,0.1643,0.1649,0.1729,0.1378,0.0895,0.058,0.0021,-0.0025,-0.0177,-0.0292,-0.0367,-0.0472,0.0007,0.005,0.0049,0.0049,0.0048,0.0048,0,0.0712,0.0783,0.0909,0.105,0.1178,0.1213,0.1394,0.1497,0.1695,0.1877,0.1981,0.1919,0.1454,0.0943,0.0206,-0.0227,-0.0425,-0.0473,-0.0624,-0.0677,-0.0265,-0.0295,-0.0285,-0.0285,-0.0285,-0.0285,-0.0285,-0.0285,0.0786,0.0917,0.0966,0.1182,0.1282,0.1451,0.1554,0.1727,0.1885,0.2129,0.2238,0.2287,0.1971,0.0606,-0.0342,-0.059,-0.0898,-0.0961,-0.1124,-0.0881,-0.0864,-0.0848,-0.0904,-0.1022,-0.1023,-0.1485,-0.149,-0.1493]}],[{"header":{"parameterUnit":"m.s-1","parameterCategory":2,"la1":30.2991,"la2":30.254,"lo1":-89.0895,"lo2":-89.0444,"dy":0.0017,"dx":0.0017,"nx":28,"ny":28,"refTime":"2024-05-01T09:00:00:Z","depth":"2","parameterNumber":2,"parameterNumberName":"U-component_of_CURRENTS"},"data":[0,0,0,0,0,0,0,0,0,0,0,0,0,0,0,0,0,0,0,0,0,0,0,0,0,0,0,0,0,0,0,0,0,0,0,0,0,0,0,0,0,0,0,0,0,0,0,0,0,0,0,0,0,0,0,0,0,0,0.3299,0.33,0,0.3348,0.3348,0.3349,0.3375,0.3375,0.3375,0.3375,0.3353,0.3353,0.3352,0,0,0,0,0,0,0,0,0,0,0,0,0,0.3245,0.3245,0.3299,0.33,0.33,0.3348,0.3348,0.3349,0.3375,0.3375,0.3375,0.3376,0.3354,0.3353,0.3352,0,0,0,0,0,0,0,0,0,0,0,0,0,0.3277,0.3245,0.3299,0.332,0.3323,0.3348,0.3348,0.3349,0.3375,0.3375,0.3375,0.3376,0.3354,0.3353,0.3352,0.334,0,0,0.3348,0.3348,0,0,0,0,0,0,0,0,0.3275,0.3279,0.3316,0.3319,0.3321,0.3357,0.3321,0.3343,0.3375,0.3354,0.3375,0.3376,0.3348,0.3348,0.3356,0.3339,0.3338,0.3348,0.3347,0.3347,0.3347,0,0,0,0,0,0,0,0.3273,0.3277,0.3317,0.3317,0.332,0.3333,0.3337,0.3326,0.3347,0.3356,0.3358,0.3365,0.3349,0.3357,0.3355,0.3337,0.3348,0.3347,0.3346,0.3346,0.3411,0.3414,0,0,0,0,0,0,0.3268,0.3275,0.3316,0.3319,0.33,0.3334,0.3339,0.3344,0.3349,0.335,0.3365,0.3366,0.3359,0.3356,0.3354,0.3423,0.3347,0.3346,0.3345,0.3409,0.3412,0.3414,0,0,0,0,0,0,0.3267,0.3271,0.3314,0.3299,0.3305,0.3334,0.334,0.3345,0.3374,0.3357,0.3357,0.3392,0.3359,0.3356,0.3371,0.3419,0.3345,0.3344,0.3406,0.341,0.3413,0.3506,0,0,0,0,0,0,0.3265,0.327,0.3281,0.3299,0.3306,0.3355,0.334,0.3346,0.3378,0.338,0.3379,0.3377,0.3359,0.3373,0.337,0.3416,0.3344,0.3403,0.3408,0.3412,0.35,0.3512,0.3523,0,0,0,0,0,0.3263,0.3282,0.3281,0.3286,0.3316,0.3356,0.3363,0.3382,0.3379,0.3406,0.3402,0.3378,0.34,0.3373,0.3369,0.3416,0.3401,0.3406,0.3412,0.3494,0.351,0.3522,0,0,0,0,0,0,0.3252,0.3287,0.3286,0.3311,0.3341,0.3362,0.3391,0.3396,0.3415,0.3425,0.3394,0.3392,0.3434,0.3409,0.338,0.3452,0.3402,0.3407,0.3467,0.3481,0.3492,0.3471,0.3343,0,0,0,0,0,0.3255,0.3299,0.3311,0.3342,0.3353,0.3373,0.3393,0.3413,0.3428,0.3439,0.3431,0.3434,0.345,0.3451,0.3462,0.3481,0.3476,0.3515,0.3527,0.3536,0.3519,0.3584,0.36,0.3432,0.3432,0.3432,0,0,0.3264,0.329,0.3314,0.3347,0.337,0.3388,0.3387,0.344,0.3458,0.343,0.3457,0.3477,0.3468,0.3509,0.3525,0.3491,0.3584,0.3543,0.3551,0.3528,0.3592,0.3608,0.3622,0.3436,0.3435,0.3435,0,0,0.3289,0.3321,0.3348,0.3381,0.3427,0.3437,0.3454,0.3485,0.3504,0.3532,0.3532,0.3565,0.3576,0.3582,0.3584,0.3657,0.3652,0.3688,0.3714,0.378,0.3794,0.3806,0.3825,0.3838,0.3682,0.3683,0.3683,0,0.3322,0.3324,0.3364,0.3392,0.3419,0.3454,0.3474,0.35,0.3535,0.3558,0.3555,0.3615,0.3602,0.365,0.368,0.368,0.3714,0.3661,0.3794,0.3806,0.3817,0.3833,0.3846,0.3688,0.3687,0.3687,0.3686,0,0.3316,0.3355,0.3383,0.3424,0.3455,0.3505,0.3528,0.357,0.3594,0.3617,0.369,0.3694,0.3727,0.3747,0.3725,0.3812,0.3811,0.3812,0.3756,0.3839,0.3851,0.3863,0.3695,0.3693,0.3692,0.369,0,0,0.3326,0.3379,0.339,0.341,0.3486,0.3504,0.3558,0.3605,0.3648,0.3697,0.3749,0.3785,0.3818,0.3821,0.3832,0.3871,0.3967,0.3879,0.388,0.3889,0.4108,0.4,0.4002,0.4023,0.4026,0.4028,0.4087,0,0.3326,0.3354,0.3391,0.3439,0.3448,0.3528,0.3568,0.3629,0.3689,0.3754,0.3795,0.3857,0.384,0.3884,0.3925,0.3953,0.4005,0.3949,0.403,0.4031,0.392,0.4014,0.3716,0.3735,0.4098,0.41,0.4102,0,0.3281,0.3312,0.3338,0.3429,0.3444,0.3488,0.3578,0.3639,0.3751,0.3805,0.3893,0.3938,0.3993,0.3984,0.4067,0.4049,0.4088,0.4105,0.4109,0.3975,0.3945,0.3711,0.3743,0.4121,0.4119,0.4118,0.4117,0,0.3192,0.3277,0.3292,0.3326,0.3423,0.347,0.3541,0.3654,0.3701,0.3863,0.3916,0.4013,0.4052,0.4126,0.4146,0.414,0.4238,0.4228,0.4169,0.416,0.3895,0.3858,0.4322,0.4322,0.4322,0.4321,0.4321,0,0.3159,0.3176,0.3256,0.3275,0.3316,0.342,0.3497,0.3603,0.3726,0.3788,0.3945,0.3993,0.4102,0.4161,0.419,0.4196,0.428,0.4176,0.4179,0.3918,0.3885,0.4203,0.4188,0.4324,0.4323,0.4323,0.4322,0,0.3045,0.3111,0.3136,0.3241,0.3274,0.331,0.3443,0.3495,0.3658,0.3748,0.38,0.397,0.4067,0.415,0.4253,0.4222,0.4259,0.4257,0.3918,0.3878,0.4124,0.4114,0.4183,0.418,0.4177,0.4175,0.4173,0,0.2976,0.297,0.3072,0.3095,0.3151,0.322,0.3267,0.3434,0.3492,0.3707,0.3728,0.3889,0.3962,0.4069,0.4078,0.4121,0.4223,0.3857,0.3774,0.412,0.4116,0.411,0.4104,0.3463,0.3455,0.3449,0.3444,0,0.2843,0.289,0.292,0.2966,0.302,0.306,0.3154,0.3169,0.337,0.345,0.3568,0.366,0.3807,0.372,0.3804,0.3787,0.3817,0.3732,0.4208,0.3543,0.3446,0.3441,0.3457,0.339,0.3395,0.3399,0.3402,0.3404,0.2738,0.2732,0.2792,0.282,0.287,0.2896,0.2886,0.2977,0.3034,0.3138,0.3312,0.3363,0.3446,0.3415,0.3336,0.3288,0.3554,0.3404,0.3421,0.3446,0.3351,0.3254,0.3142,0.3146,0.3149,0.3152,0.3155,0,0.2595,0.2623,0.2641,0.2683,0.2664,0.2752,0.2786,0.275,0.2753,0.2883,0.2961,0.2793,0.278,0.2865,0.2722,0.2744,0.2703,0.2624,0.2547,0.2606,0.2657,0.2519,0.2091,0.2087,0.2083,0.208,0,0,0.2539,0.2513,0.2524,0.2461,0.248,0.2416,0.2401,0.2384,0.2427,0.2405,0.2411,0.2643,0.278,0.2385,0.236,0.2193,0.2367,0.2106,0.297,0.2938,0.2983,0.3132,0.299,0,0,0,0,0]},{"header":{"parameterUnit":"m.s-1","parameterCategory":2,"la1":30.2991,"la2":30.254,"lo1":-89.0895,"lo2":-89.0444,"dy":0.0017,"dx":0.0017,"nx":28,"ny":28,"refTime":"2024-05-01T09:00:00:Z","depth":"2","parameterNumber":3,"parameterNumberName":"V-component_of_CURRENTS"},"data":[0,0,0,0,0,0,0,0,0,0,0,0,0,0,0,0,0,0,0,0,0,0,0,0,0,0,0,0,0,0,0,0,0,0,0,0,0,0,0,0,0,0,0,0,0,0,0,0,0,0,0,0,0,0,0,0,0,0,0.0151,0.015,0,0.0112,0.0112,0.0111,0.0078,0.0078,0.0077,0.0077,0.0002,0.0,-0.0001,0,0,0,0,0,0,0,0,0,0,0,0,0,0.0168,0.0168,0.0151,0.015,0.0149,0.0112,0.0112,0.0111,0.0078,0.0078,0.0077,0.0077,0.0002,0.0,-0.0001,0,0,0,0,0,0,0,0,0,0,0,0,0,0.0149,0.0168,0.0151,0.0127,0.0125,0.0112,0.0112,0.0111,0.0078,0.0078,0.0077,0.0076,0.0003,0.0001,-0.0002,-0.0001,0,0,-0.0009,-0.001,0,0,0,0,0,0,0,0,0.015,0.0149,0.0131,0.0129,0.0126,0.0098,0.009,0.0072,0.0079,0.0098,0.0077,0.0076,0.003,0.0026,0.0023,-0.0004,-0.0007,-0.0009,-0.001,-0.0011,-0.0012,0,0,0,0,0,0,0,0.0152,0.015,0.0137,0.0131,0.0127,0.0109,0.0106,0.0087,0.0069,0.0096,0.0093,0.0087,0.0029,0.0025,0.002,-0.0008,-0.0009,-0.0011,-0.0012,-0.0013,-0.0066,-0.0066,0,0,0,0,0,0,0.0156,0.0152,0.0138,0.0135,0.0135,0.011,0.0106,0.0109,0.007,0.0063,0.0087,0.0085,0.0029,0.0023,0.0018,0.0013,-0.0011,-0.0013,-0.0015,-0.0066,-0.0066,-0.0066,0,0,0,0,0,0,0.0157,0.0156,0.0139,0.0141,0.0137,0.011,0.0113,0.0108,0.0103,0.0064,0.0056,0.0086,0.0028,0.0021,0.0002,0.001,-0.0014,-0.0016,-0.0066,-0.0066,-0.0066,0.0007,0,0,0,0,0,0,0.0158,0.0156,0.0157,0.0142,0.0137,0.014,0.0114,0.0108,0.0099,0.0096,0.006,0.0052,0.0027,0.0006,-0.0,0.0007,-0.0018,-0.0066,-0.0066,-0.0066,0.0004,0.0009,0.0013,0,0,0,0,0,0.0159,0.0177,0.0157,0.0155,0.014,0.014,0.0137,0.0115,0.01,0.0106,0.0077,0.0053,0.0,0.0005,-0.0003,0.0004,-0.0066,-0.0066,-0.0066,0.0002,0.0008,0.0013,0,0,0,0,0,0,0.019,0.0175,0.0153,0.0166,0.0151,0.0134,0.0141,0.012,0.0103,0.0097,0.0059,0.005,0.0031,0.0007,0.0012,-0.0015,-0.0039,-0.0041,0.0015,0.0021,0.0025,0.0062,-0.002,0,0,0,0,0,0.0195,0.0201,0.0179,0.0187,0.0186,0.0161,0.0156,0.0138,0.0121,0.0113,0.0088,0.0056,0.0027,0.0017,-0.0013,-0.0018,-0.0043,-0.0023,-0.0018,-0.0014,0.001,-0.0031,-0.0027,-0.0067,-0.0067,-0.0067,0,0,0.0214,0.0199,0.0206,0.0192,0.0184,0.0194,0.0158,0.0159,0.0163,0.0108,0.0113,0.007,0.0026,0.0015,0.0005,-0.0003,-0.0018,-0.0014,-0.001,0.0012,-0.0031,-0.0027,-0.0023,-0.0067,-0.0067,-0.0067,0,0,0.0254,0.024,0.0259,0.0247,0.0227,0.022,0.0221,0.0204,0.0195,0.0187,0.0142,0.0118,0.0078,0.0056,0.0037,0.0051,0.0002,0.0024,0.0086,0.0046,0.0049,0.0052,0.0023,0.0023,0.0033,0.0033,0.0033,0,0.0264,0.0286,0.0264,0.027,0.0272,0.0237,0.0259,0.0249,0.0224,0.0225,0.0198,0.0142,0.0106,0.0093,0.0095,0.0065,0.0029,0.0072,0.0054,0.0056,0.0058,0.0027,0.0026,0.0036,0.0036,0.0036,0.0035,0,0.0317,0.0325,0.034,0.0338,0.034,0.0354,0.0337,0.0336,0.0319,0.0302,0.0283,0.023,0.02,0.0175,0.0141,0.0131,0.0096,0.006,0.0047,0.0066,0.0032,0.003,0.0041,0.004,0.0039,0.0038,0,0,0.0355,0.0374,0.0375,0.039,0.0375,0.0391,0.0405,0.0415,0.0432,0.0391,0.0409,0.0352,0.0315,0.029,0.0234,0.0205,0.0181,0.0143,0.0139,0.0128,0.0091,0.0072,0.0066,0.0129,0.0129,0.0129,0.0063,0,0.0397,0.0446,0.0435,0.0482,0.0514,0.0485,0.0507,0.0503,0.0492,0.0499,0.0442,0.043,0.0359,0.0342,0.03,0.0211,0.0177,0.0203,0.0064,0.0061,0.0051,0.0064,0.0089,0.0033,0.006,0.006,0.0059,0,0.0444,0.0475,0.0539,0.0571,0.0582,0.0601,0.0637,0.0646,0.0635,0.0621,0.0591,0.0539,0.0498,0.0428,0.0304,0.0315,0.0217,0.0146,0.014,0.0101,0.0036,0.0016,0.0027,0.0054,0.0055,0.0055,0.0055,0,0.0504,0.0542,0.0607,0.0613,0.0645,0.0669,0.0687,0.0691,0.0719,0.0702,0.0716,0.0637,0.0611,0.0481,0.0331,0.0309,0.0189,0.0138,0.0031,0.0028,0.0017,0.0013,0.0053,0.0054,0.0054,0.0054,0.0054,0,0.0553,0.0598,0.0644,0.0674,0.0753,0.0742,0.0811,0.0809,0.0826,0.0878,0.0786,0.0801,0.0619,0.0525,0.0369,0.0202,0.0213,0.0057,0.0014,0.0041,0.0041,0.0032,0.003,0.0051,0.0052,0.0052,0.0053,0,0.0604,0.0632,0.0702,0.0757,0.0784,0.0838,0.0902,0.0947,0.0945,0.1008,0.101,0.093,0.0805,0.0618,0.0416,0.0267,0.0101,0.0034,0.0086,0.005,-0.0044,-0.0041,-0.0085,-0.0086,-0.0087,-0.0088,-0.0088,0,0.0639,0.0686,0.077,0.0826,0.0854,0.0932,0.0989,0.101,0.1063,0.1093,0.1133,0.1039,0.0989,0.0687,0.0411,0.0148,0.0101,-0.0014,-0.0046,-0.0018,-0.0056,-0.0052,-0.0048,-0.0038,-0.0038,-0.0038,-0.0038,0,0.0702,0.0727,0.0785,0.09,0.0976,0.1063,0.1144,0.1212,0.1245,0.1298,0.1339,0.1307,0.1031,0.0765,0.0397,0.0216,0.003,-0.0027,-0.0012,-0.0004,0.0021,-0.0014,-0.0011,-0.004,-0.004,-0.004,-0.004,-0.004,0.0742,0.0792,0.0867,0.0973,0.1062,0.117,0.1251,0.1342,0.1444,0.1522,0.1489,0.1442,0.1146,0.0681,0.0355,0.0013,0.0033,-0.0097,-0.0094,-0.0092,-0.0072,-0.0049,-0.012,-0.012,-0.012,-0.012,-0.0121,0,0.0789,0.0845,0.094,0.1056,0.1148,0.1193,0.1336,0.1414,0.1543,0.1619,0.165,0.1375,0.1075,0.0725,0.0223,-0.0073,-0.0095,-0.0175,-0.0139,-0.0134,-0.0131,-0.0112,-0.0172,-0.0173,-0.0174,-0.0175,0,0,0.0815,0.0899,0.0941,0.1095,0.1183,0.1311,0.1396,0.152,0.1605,0.1677,0.1661,0.1607,0.1193,0.0819,0.0412,0.0114,0.0058,0.0057,0.0133,0.023,0.0237,-0.0047,-0.0009,0,0,0,0,0]}],[{"header":{"parameterUnit":"m.s-1","parameterCategory":2,"la1":30.2991,"la2":30.254,"lo1":-89.0895,"lo2":-89.0444,"dy":0.0017,"dx":0.0017,"nx":28,"ny":28,"refTime":"2024-05-01T09:00:00:Z","depth":"4","parameterNumber":2,"parameterNumberName":"U-component_of_CURRENTS"},"data":[0,0,0,0,0,0,0,0,0,0,0,0,0,0,0,0,0,0,0,0,0,0,0,0,0,0,0,0,0,0,0,0,0,0,0,0,0,0,0,0,0,0,0,0,0,0,0,0,0,0,0,0,0,0,0,0,0,0,0.1849,0.185,0,0.1929,0.1929,0.193,0.1961,0.1961,0.1961,0.1961,0.204,0.2042,0.2044,0,0,0,0,0,0,0,0,0,0,0,0,0,0.1757,0.1758,0.1849,0.185,0.1852,0.1929,0.193,0.193,0.1961,0.1961,0.1961,0.1961,0.2039,0.2042,0.2044,0,0,0,0,0,0,0,0,0,0,0,0,0,0.1809,0.1759,0.1849,0.1879,0.1883,0.1929,0.193,0.193,0.1961,0.1961,0.1961,0.1961,0.2039,0.2041,0.2044,0.2058,0,0,0.2053,0.2055,0,0,0,0,0,0,0,0,0.1806,0.1812,0.1873,0.1877,0.1882,0.1939,0.1926,0.1974,0.1961,0.1927,0.1961,0.1962,0.2009,0.2014,0.2023,0.2061,0.2065,0.2054,0.2055,0.2057,0.2057,0,0,0,0,0,0,0,0.1802,0.1809,0.1876,0.1875,0.188,0.1901,0.1908,0.1935,0.1962,0.193,0.1933,0.1949,0.201,0.202,0.2025,0.2066,0.2053,0.2056,0.2058,0.2059,0.2203,0.2205,0,0,0,0,0,0,0.1799,0.1805,0.1874,0.1879,0.1848,0.1903,0.191,0.1917,0.1962,0.197,0.1949,0.195,0.2015,0.2021,0.2028,0.2112,0.2057,0.2059,0.2061,0.2201,0.2204,0.2206,0,0,0,0,0,0,0.1796,0.1804,0.1871,0.1848,0.1858,0.1904,0.1911,0.1918,0.1968,0.1977,0.1985,0.1996,0.2015,0.2024,0.2084,0.2113,0.2061,0.2063,0.2199,0.2202,0.2205,0.2239,0,0,0,0,0,0,0.1793,0.1802,0.1823,0.1847,0.186,0.1921,0.1912,0.192,0.1977,0.198,0.202,0.2025,0.2016,0.208,0.2087,0.2116,0.2066,0.2196,0.22,0.2204,0.2235,0.2243,0.2249,0,0,0,0,0,0.179,0.1808,0.1823,0.1833,0.188,0.1923,0.1931,0.1961,0.1979,0.2006,0.2035,0.2025,0.2109,0.2084,0.2092,0.2122,0.2194,0.2199,0.2203,0.2232,0.2241,0.2249,0,0,0,0,0,0,0.1765,0.1814,0.1831,0.186,0.1903,0.193,0.1962,0.1989,0.2035,0.2043,0.2054,0.2062,0.2126,0.2128,0.21,0.2178,0.215,0.2156,0.2169,0.2178,0.2185,0.2186,0.2068,0,0,0,0,0,0.1773,0.1813,0.185,0.1881,0.1902,0.1944,0.1974,0.1994,0.203,0.2052,0.2087,0.2118,0.2146,0.2166,0.2193,0.2238,0.2257,0.2265,0.2272,0.2277,0.2286,0.2344,0.2357,0.2221,0.2221,0.2221,0,0,0.1772,0.1808,0.1829,0.1882,0.1915,0.1949,0.1962,0.2012,0.2047,0.2053,0.2127,0.2154,0.2168,0.2213,0.2241,0.2221,0.2328,0.2283,0.2288,0.2293,0.235,0.2363,0.2375,0.2224,0.2224,0.2223,0,0,0.1783,0.1822,0.1856,0.1895,0.1957,0.198,0.2007,0.2062,0.2095,0.2162,0.2172,0.222,0.2278,0.2282,0.229,0.2359,0.237,0.2378,0.2407,0.2463,0.2475,0.2485,0.2529,0.2543,0.2373,0.2373,0.2374,0,0.1785,0.1824,0.1873,0.1911,0.1948,0.1999,0.2033,0.2072,0.2146,0.2185,0.2193,0.2297,0.2303,0.235,0.2363,0.2372,0.2411,0.2366,0.2471,0.2482,0.2491,0.2534,0.2549,0.2376,0.2375,0.2375,0.2375,0,0.1807,0.1853,0.1877,0.1944,0.1988,0.203,0.2083,0.2147,0.2202,0.2241,0.2333,0.2353,0.2417,0.242,0.2407,0.2481,0.249,0.2477,0.2443,0.2507,0.2548,0.2563,0.2379,0.2378,0.2377,0.2377,0,0,0.1788,0.1873,0.1894,0.1926,0.2009,0.2045,0.2118,0.2194,0.2261,0.2331,0.2413,0.2451,0.2491,0.2504,0.2509,0.2539,0.2625,0.2541,0.2543,0.2574,0.2763,0.2595,0.2594,0.2643,0.2646,0.2648,0.2765,0,0.1798,0.1864,0.1911,0.1984,0.2016,0.2091,0.2159,0.2239,0.2315,0.241,0.2448,0.2528,0.2514,0.2557,0.2591,0.2624,0.2667,0.2595,0.2707,0.271,0.2543,0.2606,0.2657,0.2775,0.2779,0.2781,0.2783,0,0.1807,0.1858,0.1918,0.201,0.2036,0.2093,0.2224,0.229,0.2417,0.2483,0.2574,0.2618,0.2689,0.2663,0.2768,0.2735,0.2762,0.2772,0.2777,0.2616,0.2567,0.2701,0.2809,0.2807,0.2805,0.2804,0.2802,0,0.1769,0.1865,0.1915,0.1946,0.2055,0.2118,0.2195,0.2326,0.24,0.2546,0.2618,0.2717,0.2787,0.2839,0.2877,0.2845,0.2981,0.2936,0.2813,0.2802,0.2902,0.289,0.3017,0.3017,0.3017,0.3017,0.3016,0,0.1744,0.1796,0.1912,0.194,0.2029,0.2117,0.2231,0.2328,0.2469,0.2553,0.2664,0.2736,0.2842,0.2922,0.2931,0.2923,0.3042,0.283,0.2822,0.2915,0.2903,0.2913,0.2899,0.3021,0.302,0.3019,0.3019,0,0.1682,0.1754,0.1822,0.1955,0.2007,0.2078,0.2243,0.2319,0.2472,0.2586,0.2638,0.2796,0.2894,0.2974,0.3067,0.2983,0.299,0.2962,0.3077,0.3073,0.2758,0.2745,0.2817,0.2812,0.2807,0.2804,0.2801,0,0.1642,0.1675,0.1826,0.1877,0.1943,0.2065,0.2145,0.2309,0.2383,0.2593,0.2625,0.2789,0.287,0.2869,0.2967,0.2994,0.2955,0.2941,0.2812,0.2753,0.274,0.2733,0.2726,0.2794,0.2793,0.2792,0.2791,0,0.1574,0.1649,0.1712,0.1824,0.1913,0.1995,0.212,0.2156,0.2334,0.2489,0.2548,0.2593,0.2705,0.2761,0.2821,0.2826,0.2928,0.2896,0.2902,0.2781,0.2727,0.2716,0.2714,0.2777,0.2779,0.278,0.2781,0,0.1539,0.1566,0.1668,0.1749,0.1855,0.1892,0.1967,0.2044,0.2131,0.234,0.2361,0.2523,0.2679,0.2679,0.2728,0.2728,0.2666,0.2551,0.2575,0.2592,0.2462,0.2357,0.2296,0,0,0,0,0,0.1492,0.1511,0.1583,0.1654,0.1751,0.1807,0.1936,0.2009,0.2169,0.2149,0.2244,0.2326,0.2388,0.2481,0.2435,0.264,0.2688,0.2574,0.257,0.2696,0.2713,0.2579,0,0,0,0,0,0,0.1459,0.1523,0.1545,0.1561,0.1587,0.1669,0.1737,0.1841,0.1837,0.2006,0.2056,0.2184,0.229,0.2393,0.2391,0.242,0.2367,0.2683,0.2676,0.2687,0.2702,0.2715,0.2583,0,0,0,0,0]},{"header":{"parameterUnit":"m.s-1","parameterCategory":2,"la1":30.2991,"la2":30.254,"lo1":-89.0895,"lo2":-89.0444,"dy":0.0017,"dx":0.0017,"nx":28,"ny":28,"refTime":"2024-05-01T09:00:00:Z","depth":"4","parameterNumber":3,"parameterNumberName":"V-component_of_CURRENTS"},"data":[0,0,0,0,0,0,0,0,0,0,0,0,0,0,0,0,0,0,0,0,0,0,0,0,0,0,0,0,0,0,0,0,0,0,0,0,0,0,0,0,0,0,0,0,0,0,0,0,0,0,0,0,0,0,0,0,0,0,0.0227,0.0227,0,0.0209,0.0209,0.0209,0.02,0.02,0.02,0.02,0.0149,0.0147,0.0146,0,0,0,0,0,0,0,0,0,0,0,0,0,0.0242,0.0242,0.0227,0.0227,0.0227,0.0209,0.0209,0.0209,0.02,0.02,0.02,0.02,0.0149,0.0148,0.0146,0,0,0,0,0,0,0,0,0,0,0,0,0,0.0233,0.0242,0.0228,0.0219,0.0217,0.0209,0.0209,0.0209,0.02,0.02,0.02,0.02,0.0149,0.0148,0.0146,0.0141,0,0,0.014,0.014,0,0,0,0,0,0,0,0,0.0233,0.0233,0.022,0.0219,0.0218,0.0205,0.0195,0.0184,0.0201,0.0209,0.02,0.02,0.0163,0.016,0.0161,0.0138,0.0136,0.014,0.0139,0.0138,0.0138,0,0,0,0,0,0,0,0.0234,0.0233,0.0222,0.022,0.0218,0.0211,0.021,0.0193,0.0189,0.0208,0.0207,0.0202,0.0162,0.0163,0.016,0.0135,0.014,0.0139,0.0138,0.0137,0.0109,0.0109,0,0,0,0,0,0,0.0233,0.0234,0.0223,0.0222,0.0223,0.0211,0.021,0.0211,0.019,0.0186,0.0202,0.0201,0.0166,0.0162,0.0158,0.0168,0.0138,0.0137,0.0136,0.0109,0.0109,0.0109,0,0,0,0,0,0,0.0234,0.0233,0.0224,0.0225,0.0223,0.0211,0.0213,0.0211,0.0215,0.0185,0.0181,0.0208,0.0166,0.016,0.0147,0.0165,0.0136,0.0134,0.0108,0.0109,0.0109,0.0177,0,0,0,0,0,0,0.0234,0.0233,0.0236,0.0225,0.0223,0.0227,0.0213,0.0211,0.021,0.021,0.0188,0.0183,0.0165,0.015,0.0146,0.0162,0.0133,0.0108,0.0108,0.0109,0.0175,0.018,0.0185,0,0,0,0,0,0.0235,0.0249,0.0237,0.0235,0.0228,0.0227,0.0226,0.0217,0.0211,0.0219,0.0201,0.0184,0.0151,0.0149,0.0144,0.016,0.0107,0.0108,0.0109,0.0172,0.0179,0.0185,0,0,0,0,0,0,0.0266,0.0248,0.0236,0.0245,0.0236,0.0225,0.0232,0.0222,0.0216,0.0217,0.0187,0.0181,0.0175,0.0156,0.0154,0.0152,0.0127,0.0126,0.0177,0.0183,0.0188,0.0203,0.0132,0,0,0,0,0,0.027,0.0273,0.0254,0.0263,0.026,0.0245,0.0244,0.024,0.023,0.0227,0.0209,0.019,0.0174,0.0169,0.015,0.0151,0.0119,0.0157,0.0162,0.0166,0.0174,0.0135,0.0137,0.0112,0.0112,0.0112,0,0,0.0286,0.0276,0.0278,0.0269,0.0263,0.0271,0.0246,0.0254,0.0263,0.0222,0.0231,0.0205,0.0175,0.0176,0.0172,0.0164,0.0156,0.0167,0.0172,0.0176,0.0136,0.0138,0.014,0.0112,0.0112,0.0112,0,0,0.0319,0.0309,0.0319,0.0313,0.0304,0.0299,0.0302,0.0293,0.029,0.0292,0.0262,0.0248,0.0228,0.0212,0.02,0.022,0.018,0.0214,0.0259,0.0221,0.0223,0.0224,0.0187,0.0184,0.0222,0.0223,0.0223,0,0.0335,0.0347,0.0325,0.0332,0.0336,0.0314,0.0333,0.0329,0.0318,0.032,0.0304,0.0274,0.0248,0.0244,0.0252,0.0234,0.0203,0.0241,0.0228,0.0229,0.0229,0.019,0.0187,0.0226,0.0225,0.0225,0.0225,0,0.0368,0.038,0.039,0.0391,0.0394,0.041,0.0397,0.0402,0.0396,0.039,0.0383,0.0344,0.0328,0.0316,0.0292,0.0285,0.0259,0.0235,0.0216,0.0236,0.0194,0.0189,0.0231,0.0229,0.0228,0.0228,0,0,0.039,0.041,0.0412,0.043,0.0428,0.0441,0.0456,0.0466,0.0483,0.0462,0.0474,0.0442,0.0419,0.0403,0.0365,0.0335,0.0306,0.0293,0.029,0.0263,0.0221,0.0196,0.0188,0.0279,0.0279,0.0278,0.0191,0,0.0421,0.0462,0.0459,0.0505,0.0527,0.0516,0.0535,0.0541,0.0537,0.0543,0.0501,0.0497,0.0452,0.0446,0.0409,0.033,0.0296,0.0332,0.02,0.0197,0.0177,0.0182,0.0277,0.0187,0.0186,0.0185,0.0184,0,0.0444,0.0473,0.0526,0.057,0.0579,0.0606,0.0637,0.0651,0.0646,0.064,0.0624,0.0585,0.0544,0.0498,0.0383,0.0407,0.0324,0.0259,0.0253,0.0204,0.0163,0.0161,0.0174,0.0175,0.0176,0.0177,0.0177,0,0.0471,0.0518,0.0571,0.0582,0.0625,0.0653,0.0679,0.0689,0.0712,0.0704,0.0712,0.0653,0.0624,0.0517,0.0384,0.0382,0.0245,0.0223,0.0122,0.0119,0.0137,0.0136,0.0139,0.0139,0.0139,0.0139,0.014,0,0.0498,0.054,0.0595,0.0622,0.0693,0.0702,0.0767,0.0777,0.0796,0.0829,0.0769,0.0764,0.0626,0.053,0.0403,0.0248,0.0257,0.0131,0.0096,0.0167,0.0171,0.0133,0.0134,0.0136,0.0137,0.0137,0.0138,0,0.0516,0.055,0.0615,0.068,0.0709,0.076,0.0836,0.0873,0.0883,0.0918,0.0918,0.0848,0.0723,0.057,0.0389,0.0278,0.0128,0.0067,0.0158,0.0129,0.0023,0.0028,-0.0046,-0.0047,-0.0049,-0.005,-0.0051,0,0.0532,0.0567,0.0658,0.0708,0.0746,0.0823,0.0875,0.0916,0.0953,0.0964,0.0977,0.0881,0.0809,0.0545,0.0375,0.0132,0.0091,0.0009,0.0015,0.0031,0.0004,0.0011,0.0018,-0.0053,-0.0053,-0.0053,-0.0054,0,0.0556,0.0588,0.0641,0.0741,0.0815,0.0894,0.0971,0.1007,0.1043,0.1056,0.1022,0.0894,0.0749,0.0546,0.0353,0.0177,0.0062,-0.0006,-0.0004,0.0001,0.0021,-0.0002,0.0006,-0.0058,-0.0058,-0.0057,-0.0057,0,0.057,0.0608,0.0676,0.0765,0.0856,0.0934,0.0981,0.1023,0.106,0.1072,0.1057,0.091,0.0831,0.0568,0.0391,0.0215,0.0168,0.0103,0.0098,0.0101,0.0164,0.0213,0.0165,0,0,0,0,0,0.0577,0.0619,0.0696,0.0789,0.0877,0.0931,0.1024,0.1059,0.11,0.1083,0.1075,0.0941,0.069,0.0584,0.0404,0.035,0.0126,0.013,0.0046,-0.0084,-0.0078,-0.0032,0,0,0,0,0,0,0.058,0.0648,0.0684,0.0784,0.0849,0.0945,0.1007,0.1043,0.1033,0.1052,0.0925,0.0877,0.0634,0.079,0.0393,0.0342,0.0258,0.0021,0.0016,-0.0087,-0.0082,-0.0078,-0.0028,0,0,0,0,0]}]]